Nashville, TN

7:53 PM CDT on May 20, 2018 (GMT -0500)
Nashville International

Weather History for KBNA - December, 2011

Change the Weather History Date:

Saturday, December 17, 2011

  Actual Average Record
Temperature  
Mean Temperature 39 °F 40 °F  
Max Temperature 47 °F 49 °F 75 °F (1924)
Min Temperature 30 °F 31 °F 9 °F (1972)
Degree Days  
Heating Degree Days 26    
Month to date heating degree days 368  
Since 1 July heating degree days 994  
Cooling Degree Days 0    
Month to date cooling degree days 0  
Year to date cooling degree days 1919  
Moisture  
Dew Point 26 °F    
Average Humidity 62    
Maximum Humidity 85    
Minimum Humidity 38    
Precipitation  
Precipitation 0.00 in 0.13 in 2.72 in (1915)
Month to date precipitation 2.23 2.55  
Year to date precipitation 50.12 45.56  
Snow  
Snow 0.00 in - 2.30 in (1930)
Month to date snowfall T  
Since 1 July snowfall T  
Snow Depth 0.00 in    
Sea Level Pressure  
Sea Level Pressure 30.37 in    
Wind  
Wind Speed 3 mph (NW)    
Max Wind Speed 10 mph    
Max Gust Speed 14 mph    
Visibility 10 miles    
Events      
T = Trace of Precipitation, MM = Missing Value Source: NWS Daily Summary

Daily Weather History Graph

Daily Weather History Graph

Search for Another Location

Airport or City:

Astronomy

Dec. 17, 2011 Rise Set
Actual Time 6:51 AM CST 4:34 PM CST
Civil Twilight 6:22 AM CST 5:02 PM CST
Nautical Twilight 5:50 AM CST 5:34 PM CST
Astronomical Twilight 5:19 AM CST 6:06 PM CST
Moon No Moon Rise 11:18 AM CST (12/17)
Length of Visible Light 10h 39m
Length of Day
9h 42m
Waning Gibbous, 53% of the Moon is Illuminated
Dec 17
Waning Gibbous
Dec 17
Last Quarter
Dec 24
New
Jan 1
First Quarter
Jan 9
Full

Hourly Weather History & Observations

Time (CST) Temp. Windchill Dew Point Humidity Pressure Visibility Wind Dir Wind Speed Gust Speed Precip Events Conditions
12:53 AM 35.1 °F 27.9 °F 28.0 °F 76% 30.36 in 10.0 mi NNE 9.2 mph - N/A   Overcast
1:53 AM 34.0 °F 28.0 °F 26.1 °F 73% 30.37 in 10.0 mi NNW 6.9 mph - N/A   Overcast
2:53 AM 34.0 °F 28.8 °F 27.0 °F 75% 30.37 in 10.0 mi North 5.8 mph - N/A   Overcast
3:53 AM 33.1 °F 27.7 °F 27.0 °F 78% 30.37 in 10.0 mi NNW 5.8 mph - N/A   Overcast
4:53 AM 33.1 °F 30.0 °F 26.1 °F 75% 30.40 in 10.0 mi NNW 3.5 mph - N/A   Overcast
5:53 AM 32.0 °F - 26.1 °F 79% 30.40 in 10.0 mi Calm Calm - N/A   Overcast
6:17 AM 30.2 °F - 26.6 °F 86% 30.39 in 10.0 mi Calm Calm - N/A   Partly Cloudy
6:53 AM 30.0 °F - 25.0 °F 82% 30.40 in 8.0 mi Calm Calm - N/A   Partly Cloudy
7:53 AM 32.0 °F 28.7 °F 28.0 °F 85% 30.41 in 5.0 mi NW 3.5 mph - N/A   Scattered Clouds
8:53 AM 34.0 °F - 28.9 °F 82% 30.41 in 6.0 mi Calm Calm - N/A   Haze
9:48 AM 35.6 °F - 26.6 °F 70% 30.41 in 10.0 mi Calm Calm - N/A   Mostly Cloudy
9:53 AM 36.0 °F - 28.0 °F 73% 30.43 in 10.0 mi Calm Calm - N/A   Mostly Cloudy
10:04 AM 37.4 °F 34.9 °F 28.4 °F 70% 30.41 in 10.0 mi Variable 3.5 mph - N/A   Scattered Clouds
10:53 AM 39.9 °F 37.8 °F 28.0 °F 63% 30.41 in 10.0 mi NW 3.5 mph - N/A   Partly Cloudy
11:53 AM 41.0 °F - 27.0 °F 57% 30.38 in 10.0 mi Calm Calm - N/A   Partly Cloudy
12:53 PM 44.1 °F 40.1 °F 25.0 °F 47% 30.35 in 10.0 mi NW 6.9 mph - N/A   Scattered Clouds
1:53 PM 46.0 °F 43.9 °F 25.0 °F 44% 30.33 in 10.0 mi WNW 4.6 mph - N/A   Scattered Clouds
2:53 PM 46.9 °F - 23.0 °F 39% 30.30 in 10.0 mi WNW 5.8 mph - N/A   Scattered Clouds
3:53 PM 44.1 °F 42.5 °F 21.0 °F 40% 30.31 in 10.0 mi WSW 3.5 mph - N/A   Scattered Clouds
4:53 PM 42.1 °F 40.2 °F 21.9 °F 45% 30.34 in 10.0 mi West 3.5 mph - N/A   Partly Cloudy
5:53 PM 39.9 °F 36.7 °F 21.9 °F 49% 30.33 in 10.0 mi West 4.6 mph - N/A   Partly Cloudy
6:53 PM 39.0 °F 36.8 °F 23.0 °F 53% 30.35 in 10.0 mi West 3.5 mph - N/A   Partly Cloudy
7:53 PM 37.9 °F 35.5 °F 25.0 °F 60% 30.35 in 10.0 mi West 3.5 mph - N/A   Scattered Clouds
8:53 PM 37.0 °F - 26.1 °F 65% 30.35 in 10.0 mi Calm Calm - N/A   Clear
9:53 PM 37.0 °F - 26.1 °F 65% 30.36 in 10.0 mi Calm Calm - N/A   Clear
10:53 PM 37.0 °F - 27.0 °F 67% 30.36 in 10.0 mi Calm Calm - N/A   Clear
11:53 PM 36.0 °F - 28.0 °F 73% 30.36 in 10.0 mi Calm Calm - N/A   Clear